Location: Góry Miechowskie
(50.3599°N, 20.1803°E)
Time: 02:36:42
(UTC+00:00)

Vanguard 2 - Pass Details

Date: 13 September 2024
Orbit: 552 x 2910 km, 32.9° (Epoch: 09 October)

Event Time Altitude Azimuth Distance (km) Brightness Sun altitude
Rises 04:20:43 0° 234° (SW) 3,618 10.4 0.5°
Reaches altitude 10° 04:23:27 10° 220° (SW) 2,951 10.1 0.9°
Maximum altitude 04:29:13 25° 169° (S) 2,600 10.4 1.8°
Drops below altitude 10° 04:37:27 10° 121° (ESE) 4,352 12.5 3.1°
Sets 04:42:36 0° 111° (ESE) 5,786 13.5 4.0°
